TimeEST,TemperatureF,Dew PointF,Humidity,Sea Level PressureIn,VisibilityMPH,Wind Direction,Wind SpeedMPH,Gust SpeedMPH,PrecipitationIn,Events,Conditions,WindDirDegrees,DateUTC
12:03 AM,68.0,66.2,94,29.96,10.0,Calm,Calm,-,N/A,Rain,Light Rain,350,2013-02-28 05:03:00
12:08 AM,68.0,66.2,94,29.96,10.0,NW,4.6,-,N/A,Rain,Light Rain,320,2013-02-28 05:08:00
12:09 AM,68.0,66.2,94,29.96,10.0,NW,4.6,-,N/A,,Scattered Clouds,320,2013-02-28 05:09:00
12:14 AM,68.0,66.2,94,29.96,10.0,WNW,4.6,-,N/A,,Mostly Cloudy,300,2013-02-28 05:14:00
12:28 AM,68.0,66.2,94,29.97,10.0,NW,6.9,-,N/A,Rain,Light Rain,320,2013-02-28 05:28:00
12:38 AM,68.0,66.2,94,29.96,10.0,NW,8.1,-,N/A,Rain,Light Rain,320,2013-02-28 05:38:00
12:58 AM,68.0,66.2,94,29.97,10.0,NNW,10.4,-,N/A,,Light Drizzle,330,2013-02-28 05:58:00
1:03 AM,68.0,66.2,94,29.97,9.0,NW,10.4,-,N/A,Rain,Rain,320,2013-02-28 06:03:00
1:13 AM,68.0,66.2,94,29.97,4.0,NNW,6.9,-,N/A,Rain,Heavy Rain,330,2013-02-28 06:13:00
1:23 AM,68.0,66.2,94,29.97,7.0,NW,5.8,-,N/A,Rain,Rain,310,2013-02-28 06:23:00
1:28 AM,68.0,66.2,94,29.96,9.0,NNW,4.6,-,N/A,Rain,Light Rain,340,2013-02-28 06:28:00
1:33 AM,68.0,66.2,94,29.96,10.0,NW,4.6,-,N/A,Rain,Light Rain,320,2013-02-28 06:33:00
1:48 AM,68.0,66.2,94,29.96,10.0,NW,6.9,-,N/A,,Overcast,320,2013-02-28 06:48:00
1:58 AM,68.0,66.2,94,29.95,10.0,NW,4.6,-,N/A,,Overcast,320,2013-02-28 06:58:00
2:58 AM,66.2,64.4,94,29.92,10.0,SW,3.5,-,N/A,,Partly Cloudy,220,2013-02-28 07:58:00
3:00 AM,66.2,64.4,94,29.92,10.0,SSW,4.6,-,N/A,Rain,Light Rain,210,2013-02-28 08:00:00
3:11 AM,66.2,64.4,94,29.92,10.0,SW,3.5,-,N/A,,Scattered Clouds,220,2013-02-28 08:11:00
3:58 AM,66.2,64.4,94,29.94,10.0,WNW,3.5,-,N/A,,Mostly Cloudy,300,2013-02-28 08:58:00
4:58 AM,66.2,62.6,88,29.95,10.0,NW,11.5,-,N/A,,Mostly Cloudy,320,2013-02-28 09:58:00
5:58 AM,64.4,60.8,88,29.96,10.0,NNW,11.5,-,N/A,,Overcast,330,2013-02-28 10:58:00
6:58 AM,62.6,57.2,82,29.98,10.0,NNW,10.4,-,N/A,,Mostly Cloudy,340,2013-02-28 11:58:00
7:58 AM,62.6,53.6,72,30.00,10.0,NNW,11.5,-,N/A,,Partly Cloudy,330,2013-02-28 12:58:00
8:58 AM,64.4,53.6,68,30.02,10.0,NW,16.1,-,N/A,,Clear,320,2013-02-28 13:58:00
9:51 AM,66.2,51.8,60,30.01,10.0,NNW,11.5,-,N/A,,Light Drizzle,340,2013-02-28 14:51:00
9:58 AM,66.2,51.8,60,30.02,10.0,NNW,11.5,-,N/A,,Light Drizzle,340,2013-02-28 14:58:00
10:00 AM,66.2,51.8,60,30.01,10.0,NNW,12.7,-,N/A,,Scattered Clouds,330,2013-02-28 15:00:00
10:58 AM,66.2,53.6,64,30.02,10.0,NNW,10.4,-,N/A,,Mostly Cloudy,330,2013-02-28 15:58:00
11:58 AM,66.2,50.0,56,30.02,10.0,NNW,11.5,-,N/A,,Partly Cloudy,330,2013-02-28 16:58:00
12:58 PM,71.6,50.0,46,29.99,10.0,NNW,10.4,-,N/A,,Clear,330,2013-02-28 17:58:00
1:58 PM,73.4,48.2,41,29.96,10.0,NNE,8.1,-,N/A,,Scattered Clouds,20,2013-02-28 18:58:00
2:22 PM,73.4,46.4,38,29.94,10.0,NNW,6.9,-,N/A,,Light Drizzle,340,2013-02-28 19:22:00
2:31 PM,73.4,46.4,38,29.94,10.0,NW,8.1,-,N/A,,Clear,310,2013-02-28 19:31:00
2:58 PM,75.2,46.4,36,29.94,10.0,NNW,4.6,-,N/A,,Clear,340,2013-02-28 19:58:00
3:58 PM,71.6,51.8,50,29.95,10.0,NNW,10.4,-,N/A,,Scattered Clouds,330,2013-02-28 20:58:00
4:58 PM,69.8,50.0,49,29.95,10.0,NW,3.5,-,N/A,,Partly Cloudy,320,2013-02-28 21:58:00
5:58 PM,69.8,50.0,49,29.96,10.0,NW,6.9,-,N/A,,Partly Cloudy,310,2013-02-28 22:58:00
6:58 PM,68.0,51.8,56,29.97,10.0,NW,6.9,-,N/A,,Partly Cloudy,310,2013-02-28 23:58:00
7:58 PM,68.0,50.0,52,29.97,10.0,NNW,5.8,-,N/A,,Scattered Clouds,340,2013-03-01 00:58:00
8:58 PM,68.0,48.2,49,29.98,10.0,NNW,5.8,-,N/A,,Scattered Clouds,330,2013-03-01 01:58:00
9:58 PM,66.2,50.0,56,29.98,10.0,WNW,3.5,-,N/A,,Scattered Clouds,290,2013-03-01 02:58:00
10:58 PM,66.2,50.0,56,29.97,10.0,NW,5.8,-,N/A,,Mostly Cloudy,310,2013-03-01 03:58:00
11:58 PM,66.2,53.6,64,29.98,10.0,West,5.8,-,N/A,,Mostly Cloudy,270,2013-03-01 04:58:00